EHI
21 21 27 40 56 66 65 60 56 53 47 40 33 22 11 5 3 2 1 0 0 0 0 0 0 0 0 0 0 1 2 2 1 0 0 0 0 0 1 1 1 0 0
30 27 31 46 60 64 60 55 52 49 43 34 26 18 9 4 2 1 0 0 0 0 0 0 0 0 0 0 0 0 1 1 1 0 0 0 0 0 0 0 0 0 0
46 36 35 49 62 60 53 49 46 41 34 24 18 13 7 3 1 0 0 0 0 0 0 0 0 0 0 0 0 0 0 0 0 0 0 0 0 0 0 0 0 0 0
53 41 38 51 60 55 48 44 41 34 25 16 12 9 5 2 1 0 0 0 0 0 0 0 0 0 0 0 0 0 0 0 0 0 0 0 0 0 0 0 0 0 0
50 43 43 54 57 51 45 41 37 30 20 12 9 7 3 1 0 0 0 0 0 0 0 0 0 0 0 0 0 0 0 0 0 0 0 0 0 0 0 0 0 0 0
49 45 46 53 54 47 41 35 30 24 16 10 7 5 2 1 0 0 0 0 0 0 0 0 0 0 0 0 0 0 0 0 0 0 0 0 0 0 0 0 0 0 0
54 49 47 50 48 41 34 28 23 18 11 7 5 4 3 1 1 0 0 0 0 0 0 0 0 0 0 0 0 0 0 0 0 0 0 0 0 0 0 0 0 1 1
60 56 51 46 41 35 30 25 20 14 8 6 5 4 3 3 2 1 0 0 0 0 0 0 0 0 0 0 0 0 0 0 0 0 0 0 0 0 0 0 1 2 2
62 60 54 43 35 31 27 24 20 14 10 7 6 5 4 3 3 1 0 0 0 0 0 0 0 0 0 0 0 0 1 1 0 0 0 0 0 0 0 0 1 2 2
57 56 53 46 40 34 28 24 20 15 11 8 5 4 3 3 3 2 1 0 0 0 0 0 0 1 1 0 0 0 1 1 0 0 0 0 0 0 0 0 0 1 1
43 45 46 48 49 42 32 24 18 14 11 8 6 4 3 3 3 2 1 1 1 0 0 1 2 3 2 1 0 0 1 1 0 0 0 0 0 0 0 0 0 0 1
32 32 35 42 48 43 31 22 14 11 9 9 7 5 3 3 3 2 1 2 1 1 1 1 3 4 3 2 0 0 0 0 0 0 0 0 0 0 0 0 1 2 2
28 25 26 32 36 32 23 16 10 8 8 8 7 5 2 1 2 1 0 1 1 0 0 1 2 3 2 1 0 0 0 0 0 0 0 0 0 0 0 1 2 3 3
24 21 20 22 22 18 14 9 7 5 5 5 4 2 0 0 0 0 0 0 0 0 1 1 0 1 1 0 0 0 0 0 0 0 0 0 0 1 1 2 3 3 3
18 15 15 14 12 9 8 6 4 3 3 3 2 0 0 0 0 0 0 0 0 0 1 2 1 0 0 0 0 0 0 0 0 0 0 1 1 1 3 4 3 2 1
12 11 10 8 6 5 5 3 1 1 2 2 1 1 0 0 0 0 0 0 0 0 1 1 1 0 0 0 0 0 0 0 0 0 0 0 0 1 2 4 4 3 2
7 7 6 5 3 3 2 1 0 0 1 2 2 1 0 0 0 0 0 0 0 0 0 0 0 0 0 0 0 0 0 0 0 0 0 0 0 0 1 1 2 3 4
4 4 5 4 3 2 1 0 0 0 0 1 1 1 0 0 0 0 0 0 0 0 0 0 0 0 0 0 0 0 0 0 0 0 0 0 0 0 0 0 0 2 3
2 2 5 6 5 2 1 0 0 0 0 0 0 0 0 0 0 0 0 0 0 0 0 0 0 0 0 0 0 0 0 0 0 0 0 0 0 0 0 0 0 0 1
2 2 4 7 5 2 1 0 0 0 0 0 0 0 0 0 0 0 0 0 0 0 0 0 0 0 0 0 0 0 0 0 0 0 0 0 0 0 0 0 0 0 0
3 3 4 5 3 1 0 0 0 0 0 0 0 0 0 0 0 0 0 0 0 0 0 0 0 0 0 0 0 0 0 0 0 0 0 0 0 0 0 0 0 0 0
1 2 3 3 1 0 0 1 0 0 0 0 0 0 0 0 0 0 0 0 0 0 0 0 0 0 0 0 0 0 0 0 0 0 0 0 0 0 0 0 0 0 0
0 1 2 2 1 0 0 0 0 0 0 0 0 0 0 0 0 0 0 0 0 0 0 0 0 0 0 0 0 0 0 0 0 0 0 0 0 0 0 0 0 0 0
0 0 1 1 0 0 0 0 0 0 0 0 0 0 0 0 0 0 0 0 0 0 0 0 0 0 0 0 0 0 0 0 0 0 0 0 0 0 0 0 0 0 0
0 0 0 0 0 0 0 0 0 0 0 0 0 0 0 0 0 0 0 0 0 0 0 0 0 0 0 0 0 0 0 0 0 0 0 0 0 0 0 0 0 0 0
0 0 0 0 0 0 0 0 0 0 0 0 0 0 0 0 0 0 0 0 0 0 0 0 0 0 0 0 0 0 0 0 0 0 0 0 0 0 0 0 0 0 0
Wind_Speed
8 9 16 18 18 18 18 18 17 17 17 17 17 16 16 15 14 13 12 11 11 10 10 10 10 10 10 11 11 11 11 11 11 12 12 13 13 13 14 15 14 12 16
12 12 17 18 18 18 18 17 17 17 17 17 16 16 15 14 13 12 11 11 10 10 10 10 10 10 11 11 11 11 11 11 11 11 12 12 13 13 14 14 13 10 15
14 11 15 18 18 17 17 17 17 16 16 16 16 15 14 14 13 12 11 10 10 10 10 10 10 10 11 11 10 10 11 10 10 11 11 7 9 12 13 14 14 14 14
14 10 12 18 18 17 17 16 16 16 16 15 15 14 13 13 12 11 10 10 9 9 9 9 10 10 10 10 10 10 10 10 10 10 6 6 7 11 12 13 14 14 14
11 9 12 19 18 17 17 16 15 15 15 14 14 13 12 12 11 11 10 9 9 9 9 9 9 9 9 9 9 8 8 9 9 7 5 5 5 11 13 13 13 13 13
10 8 12 19 18 17 16 16 15 14 14 14 13 12 12 11 10 10 10 9 8 8 8 8 8 8 8 8 7 7 6 7 7 5 5 5 5 10 12 13 13 13 12
10 8 10 18 17 16 16 15 15 14 14 13 12 12 11 10 10 9 9 8 8 7 7 7 7 7 7 6 6 6 6 7 6 5 5 4 5 9 12 12 12 12 12
10 9 10 16 17 16 16 15 14 13 13 12 12 11 10 9 8 8 8 8 7 7 7 6 6 6 5 5 5 5 5 6 6 5 4 4 6 9 11 12 12 12 12
9 8 7 9 11 15 15 14 13 13 12 11 11 11 10 9 8 7 7 7 7 6 6 5 5 4 4 3 3 3 4 6 5 3 4 4 7 9 11 12 12 12 12
7 6 6 6 6 6 8 12 12 12 11 10 10 10 9 8 8 7 6 5 6 5 5 5 4 4 2 2 1 2 3 4 4 3 3 4 8 10 11 12 12 12 12
8 5 5 6 5 5 5 8 9 10 9 8 7 8 6 2 2 3 5 6 5 5 5 4 4 3 2 1 0 1 2 1 2 2 3 6 9 11 12 12 12 12 12
10 7 5 6 6 5 4 4 3 3 3 3 2 3 2 2 1 2 3 5 5 4 4 3 3 2 2 1 1 1 1 1 1 2 3 8 10 12 12 12 12 12 13
9 8 6 6 5 5 3 3 2 2 2 2 3 3 2 1 1 0 0 1 1 1 0 0 0 1 1 1 0 0 0 1 1 2 3 8 10 12 13 13 14 13 13
7 7 6 6 5 5 4 3 3 2 2 2 2 3 2 1 1 1 1 1 1 1 1 1 1 1 1 0 0 1 1 1 1 1 3 8 9 11 13 14 15 15 14
6 5 6 6 6 5 4 2 3 2 2 2 1 2 2 2 2 1 1 1 1 1 1 1 1 1 1 1 1 1 1 2 2 2 2 6 8 9 12 13 15 16 15
6 6 5 6 5 5 4 3 2 2 2 2 2 2 2 2 2 2 2 2 1 1 1 1 1 1 0 1 1 2 1 2 2 3 3 4 7 8 9 12 13 15 16
5 5 6 6 6 6 4 4 3 3 2 2 1 2 2 3 3 3 2 2 1 1 2 2 2 1 1 1 1 2 1 2 2 3 3 3 3 6 9 10 12 13 15
5 5 6 6 6 5 4 4 3 3 3 2 2 2 2 3 4 3 2 1 1 2 2 2 2 1 1 1 2 2 2 2 3 3 3 3 3 3 5 9 11 12 14
5 5 5 5 5 5 4 3 3 3 3 2 2 2 2 3 4 3 2 2 2 2 2 1 2 1 1 2 2 2 2 2 3 3 3 3 3 3 3 5 9 11 14
5 5 5 5 5 5 4 4 3 3 2 2 2 2 2 2 3 3 3 2 3 3 2 2 2 2 1 1 2 2 2 2 2 2 2 2 2 3 3 4 4 5 10
6 5 5 5 5 4 3 3 3 2 2 2 1 2 2 3 3 3 3 3 3 3 2 1 1 2 2 2 2 3 3 2 2 2 2 2 3 3 2 2 3 3 3
6 6 6 6 5 4 3 3 2 3 2 2 1 2 2 2 3 3 3 3 3 3 2 2 2 1 1 2 1 1 3 4 3 3 3 2 3 3 3 3 2 3 3
7 7 7 6 5 4 4 4 4 3 3 2 2 1 2 1 2 3 4 3 3 2 2 1 1 2 1 1 1 1 1 1 3 3 3 3 4 3 3 3 3 3 3
6 6 6 6 5 5 5 5 5 4 3 2 1 1 2 2 2 3 3 3 3 2 2 1 1 1 2 0 1 0 1 2 1 3 3 3 4 3 4 4 4 4 3
6 6 6 6 5 5 5 6 5 4 3 2 2 2 2 2 2 2 3 3 3 2 2 1 1 1 1 1 1 0 0 0 1 1 3 4 4 3 3 4 3 3 3
5 6 6 7 5 5 5 5 6 6 5 4 3 2 1 1 2 2 3 3 2 2 1 1 1 2 1 1 1 1 1 1 1 2 3 3 4 4 4 3 3 3 3
Wind_Direction
149 151 148 142 136 131 127 124 122 122 122 123 124 126 128 129 129 129 128 125 123 120 114 108 104 103 102 101 102 103 105 108 111 113 114 115 116 116 115 112 111 111 112
142 149 149 145 140 135 131 129 127 126 126 126 127 129 130 130 130 129 128 125 122 118 114 111 107 106 104 103 104 107 109 111 112 114 115 116 118 117 116 116 115 117 117
141 147 149 146 142 138 135 134 133 131 131 131 131 132 133 133 133 131 128 125 123 120 117 115 112 109 108 107 108 110 112 112 112 112 109 109 120 121 121 121 121 120 120
142 145 149 149 145 142 140 139 137 136 135 135 135 136 136 135 135 132 130 128 126 123 120 119 116 113 111 111 110 111 112 112 111 109 102 113 124 128 126 125 124 123 123
139 142 154 150 148 146 145 143 142 140 139 139 139 140 139 138 137 134 133 131 129 127 124 120 117 115 113 112 111 112 115 117 117 107 100 105 115 134 131 129 129 128 126
139 145 157 152 151 150 149 147 146 145 144 144 144 144 144 144 143 139 136 134 131 130 128 123 119 117 115 112 109 108 111 120 115 113 110 116 125 139 137 136 134 132 130
144 147 157 154 154 154 153 151 151 151 151 151 151 150 150 150 149 144 142 138 136 134 130 126 123 119 115 109 101 95 96 113 120 126 126 130 143 146 144 141 140 138 136
146 146 151 155 158 158 156 155 156 157 158 157 156 156 155 155 154 152 150 148 146 143 140 134 130 126 118 105 93 86 91 106 123 135 139 146 159 157 152 149 147 145 143
139 137 142 153 159 162 159 159 160 161 162 161 161 160 160 161 163 161 159 159 159 155 152 150 147 141 131 114 98 88 96 109 120 136 158 161 172 167 162 158 157 155 152
130 132 136 139 141 149 156 161 162 164 164 164 165 166 170 171 171 170 165 173 171 169 170 170 168 161 154 135 104 90 102 110 127 149 157 179 183 179 173 169 167 164 161
140 132 130 127 125 129 140 160 160 164 167 166 169 171 164 139 145 168 178 186 191 190 193 196 193 185 175 150 73 86 96 118 147 166 173 193 193 191 185 180 177 173 171
154 154 139 132 129 126 141 125 114 129 135 129 122 130 114 114 141 177 204 202 204 201 204 211 215 198 145 90 24 27 82 161 186 199 205 208 204 200 195 189 187 184 181
157 156 144 138 135 129 117 120 111 101 103 113 124 125 120 117 112 124 107 232 225 201 124 22 34 68 88 86 49 10 278 225 233 231 226 223 217 208 202 197 195 193 191
148 150 143 140 137 130 125 125 124 122 119 125 139 144 141 132 121 124 114 108 104 102 115 89 84 67 84 90 244 266 268 245 238 239 241 237 229 219 211 204 200 199 198
143 149 155 147 144 137 129 132 131 130 141 145 127 140 148 144 146 134 111 93 86 78 121 128 99 74 56 349 309 274 254 251 252 246 252 253 240 224 219 213 206 205 203
159 159 153 146 146 140 138 132 130 133 137 128 140 155 154 145 143 128 115 106 99 98 107 116 109 87 42 338 321 311 286 270 259 258 256 269 260 239 227 221 214 211 209
160 154 151 144 138 137 137 141 136 135 129 132 150 154 145 138 130 121 112 103 93 91 95 88 75 65 46 352 324 317 307 289 278 267 259 254 265 258 243 230 222 219 218
152 152 147 145 137 133 136 134 126 125 123 129 129 123 132 134 130 119 114 105 96 90 87 92 73 65 30 3 327 313 310 297 290 279 263 253 249 257 259 249 235 226 225
149 139 133 127 129 125 120 114 109 108 106 109 107 108 119 122 126 124 120 115 112 94 79 90 76 76 34 346 311 305 319 313 301 293 283 271 256 251 252 260 256 242 235
132 128 120 112 117 115 108 100 88 85 90 95 99 111 119 119 126 123 119 113 105 93 75 69 78 61 46 339 327 331 321 319 320 322 311 307 292 281 272 265 263 259 249
135 136 132 128 131 130 120 117 116 116 104 96 103 114 117 124 129 129 123 114 101 96 91 83 85 57 25 4 14 345 335 341 346 347 338 345 346 332 322 286 265 259 261
153 153 146 149 150 146 133 126 123 119 105 91 78 77 83 110 138 145 138 129 121 111 90 74 84 85 27 28 66 40 351 345 346 359 353 7 358 352 354 338 306 280 268
162 165 160 159 154 142 126 109 95 78 65 60 55 53 35 79 120 125 137 133 131 126 124 114 113 120 99 20 51 124 123 282 313 326 349 4 358 359 351 337 335 317 289
167 158 155 153 144 137 138 140 142 140 140 152 131 97 55 56 86 109 126 132 131 128 135 146 123 122 134 119 12 43 176 181 228 319 325 340 348 352 342 335 331 325 314
163 157 154 142 138 142 145 146 138 127 127 114 98 95 71 47 60 91 117 127 133 136 142 130 118 124 141 169 186 177 101 83 176 213 295 321 331 323 321 315 314 322 325
162 154 150 145 145 149 148 146 145 142 141 134 129 125 98 64 51 76 109 117 128 137 151 153 147 148 157 168 179 187 189 196 203 203 246 287 303 303 308 302 305 316 321